1504000800.65,19384,20.25,74310.8,24.51,-24.93,-26.03,0,*43
1504000801.88,19385,20.25,74310.5,24.47,-25.09,-26.13,0,*46
1504000803.11,19386,20.25,74314.5,24.51,-26.07,-27.39,0,*46
1504000804.34,19387,20.25,74312.3,24.51,-26.07,-27.35,0,*4B
1504000805.59,19388,20.25,74314.0,24.45,-27.13,-28.43,0,*4B
1504000806.88,19389,20.25,74308.8,24.45,-24.67,-25.75,0,*42
1504000808.11,19390,20.25,74312.5,24.47,-24.67,-25.91,0,*42
1504000809.36,19391,20.25,74312.8,24.45,-25.39,-26.55,0,*40
1504000810.61,19392,20.25,74310.5,24.45,-25.39,-26.71,0,*45
1504000811.84,19393,20.25,74310.0,24.47,-25.13,-26.55,0,*48
1504000813.09,19394,20.25,74312.0,24.45,-23.95,-24.97,0,*49
1504000814.35,19395,20.25,74312.5,24.45,-23.85,-24.97,0,*49
1504000815.59,19396,20.25,74310.5,24.47,-23.69,-24.83,0,*4F
1504000816.82,19397,20.25,74310.3,24.51,-25.03,-26.07,0,*4D
1504000818.06,19398,20.25,74310.3,24.47,-25.55,-26.61,0,*46
1504000819.32,19399,20.25,74314.5,24.45,-24.57,-25.55,0,*42
1504000820.52,19400,20.25,74310.3,24.51,-25.23,-26.39,0,*4B
1504000821.79,19401,20.25,74312.3,24.51,-24.71,-25.71,0,*43
1504000823.0,19402,20.25,74312.3,24.51,-24.77,-25.91,0,*48
1504000824.26,19403,20.25,74308.3,24.53,-23.75,-24.83,0,*4C
1504000825.51,19404,20.25,74312.5,24.53,-24.35,-25.45,0,*43
1504000826.77,19405,20.25,74314.0,24.53,-25.13,-26.17,0,*43
1504000828.03,19406,20.25,74312.5,24.53,-25.97,-27.13,0,*49
1504000829.25,19407,20.25,74312.5,24.51,-25.39,-26.55,0,*4D
1504000830.45,19408,20.25,74314.8,24.51,-25.35,-26.49,0,*43
1504000831.66,19409,20.25,74314.5,24.51,-24.57,-25.61,0,*4E
1504000832.89,19410,20.25,74312.8,24.51,-25.09,-26.33,0,*48
1504000834.11,19411,20.25,74312.5,24.51,-23.65,-24.57,0,*45
1504000835.35,19412,20.25,74312.3,24.51,-24.61,-25.55,0,*46
1504000836.64,19413,20.25,74314.0,24.53,-24.21,-25.29,0,*4A
1504000837.89,19414,20.25,74312.0,24.53,-24.97,-26.17,0,*4E
1504000839.17,19415,20.25,74310.8,24.53,-23.85,-24.71,0,*49
1504000840.4,19416,20.25,74310.8,24.55,-23.13,-24.11,0,*45
1504000841.62,19417,20.25,74310.5,24.55,-22.67,-23.53,0,*47
1504000842.9,19418,20.25,74312.0,24.57,-23.33,-24.41,0,*4E
1504000844.13,19419,20.25,74312.0,24.59,-24.21,-25.23,0,*40
1504000845.39,19420,20.25,74312.3,24.57,-23.49,-24.47,0,*4E
1504000846.61,19421,20.25,74312.0,24.59,-23.89,-25.03,0,*4C
1504000847.81,19422,20.25,74312.8,24.59,-23.89,-24.93,0,*47
1504000849.08,19423,20.25,74312.8,24.61,-24.41,-25.39,0,*4F
1504000850.36,19424,20.25,74314.5,24.61,-24.15,-25.03,0,*40
1504000851.61,19425,20.25,74312.5,24.61,-24.97,-26.13,0,*49
1504000852.83,19426,20.25,74310.5,24.59,-25.39,-26.55,0,*46
1504000854.07,19427,20.25,74314.8,24.61,-24.35,-25.35,0,*44
1504000855.27,19428,20.25,74312.5,24.59,-23.59,-24.61,0,*4D
1504000856.52,19429,20.25,74312.5,24.61,-23.53,-24.51,0,*4E
1504000857.73,19430,20.25,74312.8,24.59,-24.05,-24.93,0,*47
1504000858.98,19431,20.25,74310.5,24.63,-23.29,-24.25,0,*4B
1504000860.26,19432,20.25,74310.8,24.61,-22.47,-23.53,0,*45
1504000861.49,19433,20.25,74314.3,24.63,-22.37,-23.29,0,*4C
1504000862.74,19434,20.25,74314.3,24.65,-22.87,-23.85,0,*40
1504000863.93,19435,20.25,74314.5,24.67,-22.67,-23.59,0,*4C
1504000865.15,19436,20.25,74314.0,24.69,-22.87,-23.75,0,*41
1504000866.39,19437,20.25,74312.8,24.69,-22.63,-23.69,0,*47
1504000867.64,19438,20.25,74314.8,24.73,-22.41,-23.33,0,*4C
1504000868.86,19439,20.25,74312.0,24.75,-23.49,-24.35,0,*43
1504000870.08,19440,20.25,74312.5,24.75,-22.87,-23.85,0,*42
1504000871.3,19441,20.25,74310.8,24.75,-23.33,-24.31,0,*45
1504000872.55,19442,20.25,74312.3,24.79,-23.03,-24.05,0,*4E
1504000873.79,19443,20.25,74312.0,24.77,-22.77,-23.79,0,*4F
1504000875.01,19444,20.25,74312.3,24.75,-23.65,-24.61,0,*46
1504000876.24,19445,20.25,74314.3,24.77,-23.43,-24.41,0,*43
1504000877.52,19446,20.25,74314.8,24.79,-23.29,-24.25,0,*40
1504000878.79,19447,20.25,74308.5,24.79,-23.03,-24.11,0,*4E
1504000880.05,19448,20.25,74312.0,24.83,-23.09,-24.15,0,*4A
1504000881.27,19449,20.25,74312.0,24.81,-22.87,-23.99,0,*4D
1504000882.51,19450,20.25,74310.3,24.83,-22.87,-23.95,0,*4B
1504000883.76,19451,20.25,74310.3,24.83,-23.65,-24.51,0,*48
1504000884.96,19452,20.25,74310.0,24.85,-23.89,-24.97,0,*45
1504000886.24,19453,20.25,74310.3,24.83,-24.67,-25.81,0,*43
1504000887.5,19454,20.25,74310.0,24.83,-24.21,-25.13,0,*4D
1504000888.73,19455,20.25,74314.3,24.83,-23.09,-24.05,0,*47
1504000889.98,19456,20.25,74310.5,24.85,-23.03,-24.15,0,*49
1504000891.2,19457,20.25,74312.5,24.87,-23.39,-24.35,0,*41
1504000892.45,19458,20.25,74312.3,24.85,-23.03,-24.25,0,*44
1504000893.7,19459,20.25,74312.5,24.87,-22.73,-23.75,0,*43
1504000894.99,19460,20.25,74312.0,24.87,-22.77,-23.85,0,*42
1504000896.23,19461,20.25,74310.8,24.87,-22.41,-23.53,0,*4D
1504000897.48,19462,20.25,74312.0,24.89,-22.47,-23.29,0,*4B
1504000898.73,19463,20.25,74314.0,24.91,-23.33,-24.47,0,*4E
1504000899.96,19464,20.25,74310.8,24.91,-24.35,-25.61,0,*4D
1504000901.23,19465,20.31,74314.0,24.89,-24.41,-25.55,0,*41
1504000902.48,19466,20.25,74308.8,24.91,-24.77,-25.97,0,*40
1504000903.71,19467,20.25,74314.0,24.91,-24.31,-25.35,0,*4B
1504000904.97,19468,20.25,74310.8,24.89,-24.83,-25.97,0,*4C
1504000906.22,19469,20.25,74310.3,24.89,-23.85,-25.03,0,*41
1504000907.43,19470,20.25,74308.8,24.89,-22.93,-23.75,0,*48
1504000908.64,19471,20.25,74312.0,24.91,-22.87,-23.79,0,*49
1504000909.89,19472,20.25,74310.3,24.91,-23.49,-24.47,0,*43
1504000911.09,19473,20.25,74312.3,24.93,-25.23,-26.45,0,*4A
1504000912.33,19474,20.25,74312.3,24.91,-25.19,-26.33,0,*47
1504000913.55,19475,20.25,74310.8,24.89,-25.29,-26.45,0,*4D
1504000914.78,19476,20.25,74312.8,24.89,-25.87,-26.81,0,*42
1504000915.99,19477,20.25,74310.5,24.89,-24.05,-24.93,0,*49
1504000917.23,19478,20.25,74314.3,24.87,-24.51,-25.65,0,*41
1504000918.48,19479,20.25,74314.5,24.89,-26.17,-27.35,0,*49
1504000919.76,19480,20.25,74310.8,24.87,-26.17,-27.23,0,*46
1504000921.02,19481,20.31,74312.3,24.87,-24.83,-25.91,0,*43
1504000922.25,19482,20.25,74310.8,24.85,-23.95,-24.77,0,*4B
1504000923.5,19483,20.25,74310.0,24.87,-25.03,-26.07,0,*44
1504000924.75,19484,20.25,74308.5,24.87,-24.87,-26.07,0,*4E
1504000925.98,19485,20.25,74312.3,24.85,-25.09,-26.13,0,*4F
1504000927.22,19486,20.25,74312.8,24.87,-24.35,-25.49,0,*4C
1504000928.43,19487,20.31,74312.3,24.85,-23.75,-24.77,0,*40
1504000929.68,19488,20.25,74310.8,24.87,-24.05,-25.03,0,*4F
1504000930.95,19489,20.25,74310.8,24.87,-24.25,-25.39,0,*45
1504000932.23,19490,20.25,74310.5,24.87,-25.55,-26.81,0,*4B
1504000933.46,19491,20.31,74314.8,24.85,-26.29,-27.55,0,*48
1504000934.74,19492,20.31,74314.5,24.87,-24.11,-25.03,0,*41
1504000936.02,19493,20.25,74310.5,24.87,-23.53,-24.67,0,*42
1504000937.27,19494,20.25,74312.0,24.87,-23.53,-24.57,0,*46
1504000938.49,19495,20.25,74308.3,24.89,-23.89,-24.87,0,*43
1504000939.76,19496,20.31,74314.3,24.89,-24.71,-25.81,0,*47
1504000941.04,19497,20.25,74310.0,24.87,-24.83,-25.71,0,*4A
1504000942.27,19498,20.31,74312.3,24.89,-25.39,-26.33,0,*4E
1504000943.51,19499,20.25,74308.5,24.89,-26.03,-27.23,0,*45
1504000944.76,19500,20.25,74312.5,24.87,-24.41,-25.87,0,*42
1504000946.0,19501,20.31,74312.5,24.85,-24.21,-25.23,0,*49
1504000947.24,19502,20.31,74314.3,24.87,-23.39,-24.41,0,*43
1504000948.43,19503,20.25,74312.8,24.89,-23.39,-24.35,0,*4F
1504000949.7,19504,20.31,74314.8,24.91,-23.53,-24.67,0,*4A
1504000950.96,19505,20.25,74312.5,24.91,-24.21,-25.19,0,*41
1504000952.2,19506,20.25,74312.3,24.89,-24.21,-25.49,0,*4E
1504000953.44,19507,20.25,74312.5,24.91,-23.65,-24.61,0,*4A
1504000954.7,19508,20.31,74314.0,24.93,-23.95,-24.83,0,*44
1504000955.9,19509,20.31,74314.5,24.93,-24.97,-26.23,0,*48
1504000957.13,19510,20.31,74312.5,24.93,-24.61,-25.75,0,*49
1504000958.37,19511,20.25,74312.8,24.93,-24.71,-25.91,0,*43
1504000959.58,19512,20.31,74314.0,24.93,-25.87,-27.07,0,*45
1504000960.77,19513,20.31,74310.8,24.89,-25.35,-26.49,0,*4D
1504000961.97,19514,20.31,74312.8,24.89,-25.23,-26.39,0,*4A
1504000963.24,19515,20.25,74312.3,24.91,-23.53,-24.67,0,*4A
1504000964.49,19516,20.25,74312.0,24.91,-25.13,-26.33,0,*48
1504000965.76,19517,20.25,74312.8,24.91,-25.29,-26.29,0,*4B
1504000967.03,19518,20.25,74312.5,24.89,-24.71,-25.81,0,*40
1504000968.28,19519,20.25,74312.3,24.89,-25.97,-27.23,0,*42
1504000969.48,19520,20.25,74314.0,24.89,-25.09,-26.23,0,*4E
1504000970.73,19521,20.31,74316.0,24.89,-24.87,-25.97,0,*44
1504000971.98,19522,20.25,74310.5,24.89,-23.85,-24.87,0,*42
1504000973.22,19523,20.25,74310.8,24.89,-24.25,-25.39,0,*4A
1504000974.45,19524,20.25,74314.0,24.89,-23.95,-25.19,0,*43
1504000975.7,19525,20.25,74310.3,24.91,-23.79,-24.87,0,*4F
1504000976.94,19526,20.31,74314.5,24.91,-23.89,-24.87,0,*43
1504000978.17,19527,20.25,74312.3,24.97,-22.97,-23.95,0,*4E
1504000979.39,19528,20.25,74308.8,24.97,-22.41,-23.29,0,*4D
1504000980.64,19529,20.31,74314.8,24.97,-22.47,-23.53,0,*47
1504000981.88,19530,20.25,74308.0,24.99,-23.69,-24.77,0,*4D
1504000983.12,19531,20.31,74312.3,24.99,-24.51,-25.49,0,*4C
1504000984.39,19532,20.25,74308.5,24.99,-23.69,-24.67,0,*4E
1504000985.62,19533,20.31,74314.5,25.01,-24.31,-25.29,0,*4E
1504000986.85,19534,20.31,74312.8,25.03,-23.43,-24.47,0,*40
1504000988.11,19535,20.31,74314.3,24.99,-23.13,-24.21,0,*46
1504000989.34,19536,20.31,74312.5,25.01,-22.53,-23.49,0,*49
1504000990.62,19537,20.25,74312.5,25.03,-22.47,-23.33,0,*42
1504000991.82,19538,20.25,74308.8,25.05,-22.03,-22.97,0,*44
1504000993.05,19539,20.25,74308.3,25.09,-22.11,-23.19,0,*4D
1504000994.3,19540,20.31,74312.0,25.11,-23.99,-25.23,0,*44
1504000995.54,19541,20.25,74308.8,25.11,-24.61,-25.61,0,*43
1504000996.75,19542,20.31,74310.5,25.09,-23.09,-24.05,0,*43
1504000997.97,19543,20.25,74310.5,25.11,-22.87,-23.79,0,*40
1504000999.2,19544,20.25,74310.5,25.13,-22.53,-23.49,0,*4F
1504001000.42,19545,20.31,74312.8,25.13,-23.13,-24.11,0,*41
1504001001.62,19546,20.31,74312.5,25.13,-22.03,-22.87,0,*4B
1504001002.88,19547,20.31,74310.5,25.15,-21.57,-22.53,0,*47
1504001004.13,19548,20.31,74310.5,25.19,-23.03,-24.05,0,*42
1504001005.38,19549,20.25,74310.0,25.21,-22.31,-23.33,0,*4A
1504001006.63,19550,20.31,74312.5,25.23,-24.11,-25.39,0,*48
1504001007.87,19551,20.25,74310.0,25.21,-24.61,-25.75,0,*44
1504001009.08,19552,20.25,74308.0,25.21,-22.87,-23.95,0,*41
1504001010.3,19553,20.31,74310.5,25.21,-24.15,-25.39,0,*4D
1504001011.58,19554,20.25,74308.3,25.23,-23.03,-23.95,0,*48
1504001012.83,19555,20.31,74310.5,25.23,-22.21,-23.13,0,*46
1504001014.07,19556,20.31,74312.5,25.25,-23.75,-24.87,0,*49
1504001015.32,19557,20.31,74310.8,25.27,-23.03,-24.05,0,*41
1504001016.57,19558,20.25,74310.3,25.27,-22.63,-23.53,0,*4D
1504001017.8,19559,20.31,74314.8,25.27,-22.93,-23.89,0,*44
1504001019.03,19560,20.31,74312.0,25.29,-23.53,-24.47,0,*48
1504001020.25,19561,20.31,74312.0,25.29,-22.41,-23.49,0,*42
1504001021.49,19562,20.25,74312.3,25.29,-23.99,-25.09,0,*47
1504001022.72,19563,20.25,74310.5,25.29,-25.61,-26.81,0,*44
1504001023.94,19564,20.31,74310.8,25.29,-25.81,-27.07,0,*42
1504001025.21,19565,20.25,74308.5,25.27,-23.69,-24.67,0,*48
1504001026.44,19566,20.31,74312.0,25.29,-22.37,-23.33,0,*49
1504001027.71,19567,20.31,74312.5,25.31,-23.19,-24.11,0,*4B
1504001028.94,19568,20.25,74308.5,25.31,-21.93,-22.87,0,*4D
1504001030.23,19569,20.31,74312.5,25.31,-22.17,-23.03,0,*4E
1504001031.5,19570,20.25,74310.3,25.35,-22.47,-23.53,0,*42
1504001032.75,19571,20.31,74312.3,25.35,-23.03,-24.05,0,*46
1504001034.0,19572,20.31,74314.8,25.35,-25.39,-26.55,0,*4D
1504001035.23,19573,20.25,74308.8,25.35,-22.93,-23.75,0,*4C
1504001036.48,19574,20.31,74312.8,25.35,-22.41,-23.23,0,*47
1504001037.73,19575,20.31,74314.3,25.41,-23.23,-24.35,0,*40
1504001038.98,19576,20.31,74312.5,25.41,-23.49,-24.35,0,*4F
1504001040.24,19577,20.25,74310.8,25.41,-23.49,-24.61,0,*4F
1504001041.49,19578,20.31,74314.5,25.41,-22.97,-23.99,0,*42
1504001042.75,19579,20.31,74314.0,25.41,-23.65,-24.77,0,*48
1504001044.01,19580,20.31,74312.8,25.41,-25.49,-26.77,0,*44
1504001045.24,19581,20.31,74314.0,25.41,-23.79,-24.77,0,*42
1504001046.49,19582,20.31,74312.3,25.41,-24.15,-25.19,0,*45
1504001047.72,19583,20.31,74312.8,25.37,-24.11,-25.19,0,*41
1504001048.93,19584,20.31,74316.5,25.37,-24.35,-25.49,0,*45
1504001050.18,19585,20.31,74314.0,25.41,-23.33,-24.35,0,*4E
1504001051.43,19586,20.31,74310.8,25.41,-23.19,-24.05,0,*46
1504001052.69,19587,20.31,74312.0,25.41,-23.49,-24.51,0,*43
1504001053.95,19588,20.31,74312.8,25.41,-24.21,-25.19,0,*48
1504001055.18,19589,20.31,74314.0,25.43,-24.87,-25.87,0,*40
1504001056.44,19590,20.31,74312.3,25.41,-24.21,-25.19,0,*41
1504001057.67,19591,20.31,74310.5,25.41,-24.31,-25.35,0,*4F
1504001058.93,19592,20.31,74310.0,25.41,-23.99,-25.09,0,*46
1504001060.16,19593,20.31,74314.3,25.41,-23.39,-24.51,0,*41
1504001061.43,19594,20.31,74314.0,25.41,-23.65,-24.67,0,*4A
1504001062.68,19595,20.31,74312.0,25.45,-22.31,-23.39,0,*43
1504001063.94,19596,20.31,74314.5,25.43,-22.31,-23.29,0,*47
1504001065.19,19597,20.31,74308.5,25.45,-23.13,-24.25,0,*4A
1504001066.42,19598,20.25,74308.3,25.45,-23.59,-24.57,0,*4E
1504001067.66,19599,20.31,74314.3,25.45,-22.27,-23.09,0,*4B
1504001068.89,19600,20.31,74314.0,25.47,-22.11,-23.03,0,*45
1504001070.15,19601,20.31,74314.5,25.49,-22.53,-23.49,0,*42
1504001071.38,19602,20.25,74310.0,25.51,-21.87,-22.83,0,*45
1504001072.58,19603,20.31,74312.5,25.51,-22.27,-23.39,0,*4D
1504001073.83,19604,20.31,74308.0,25.53,-23.13,-24.21,0,*40
1504001075.07,19605,20.25,74308.8,25.55,-23.75,-24.71,0,*42
1504001076.32,19606,20.31,74312.3,25.53,-23.75,-24.83,0,*4A
1504001077.51,19607,20.31,74312.3,25.55,-23.39,-24.35,0,*48
1504001078.74,19608,20.31,74314.8,25.55,-22.97,-24.11,0,*44
1504001079.97,19609,20.31,74312.5,25.55,-24.57,-25.55,0,*4E
1504001081.21,19610,20.25,74308.3,25.55,-24.35,-25.55,0,*42
1504001082.44,19611,20.31,74314.0,25.51,-23.95,-24.93,0,*41
1504001083.68,19612,20.31,74314.8,25.53,-22.73,-23.75,0,*46
1504001084.92,19613,20.31,74312.0,25.55,-22.27,-23.23,0,*43
1504001086.14,19614,20.31,74314.0,25.57,-21.47,-22.53,0,*45
1504001087.37,19615,20.31,74312.5,25.59,-22.97,-24.11,0,*44
1504001088.6,19616,20.31,74312.8,25.59,-23.95,-24.93,0,*4E
1504001089.85,19617,20.31,74310.8,25.59,-23.03,-23.95,0,*41
1504001091.07,19618,20.31,74312.0,25.59,-22.87,-23.69,0,*40
1504001092.32,19619,20.31,74312.3,25.65,-21.67,-22.57,0,*4F
1504001093.55,19620,20.31,74312.0,25.65,-22.03,-22.93,0,*4C
1504001094.82,19621,20.31,74310.3,25.69,-21.23,-22.17,0,*4C
1504001096.1,19622,20.31,74314.5,25.69,-22.21,-23.03,0,*4A
1504001097.35,19623,20.31,74312.3,25.69,-23.95,-24.97,0,*4F
1504001098.57,19624,20.31,74314.5,25.71,-23.85,-24.93,0,*44
1504001099.82,19625,20.31,74308.3,25.69,-23.99,-24.93,0,*41
1504001101.06,19626,20.31,74308.8,25.69,-22.67,-23.53,0,*49
1504001102.29,19627,20.31,74310.8,25.71,-22.37,-23.19,0,*4A
1504001103.49,19628,20.31,74312.0,25.71,-21.63,-22.53,0,*48
1504001104.72,19629,20.25,74310.0,25.73,-22.57,-23.53,0,*4E
1504001105.98,19630,20.31,74314.8,25.75,-23.53,-24.47,0,*47
1504001107.2,19631,20.31,74312.8,25.73,-22.41,-23.29,0,*4D
1504001108.43,19632,20.31,74312.3,25.75,-21.13,-21.93,0,*4F
1504001109.68,19633,20.31,74312.8,25.79,-20.53,-21.43,0,*4A
1504001110.87,19634,20.31,74312.0,25.77,-21.39,-22.41,0,*4F
1504001112.09,19635,20.31,74312.3,25.87,-22.03,-22.87,0,*41
1504001113.35,19636,20.31,74314.5,25.83,-22.73,-23.75,0,*4D
1504001114.57,19637,20.31,74310.8,25.83,-22.11,-22.87,0,*44
1504001115.8,19638,20.25,74308.3,25.89,-22.31,-23.13,0,*4F
1504001117.07,19639,20.31,74314.0,25.87,-23.03,-23.95,0,*4E
1504001118.33,19640,20.31,74312.5,25.91,-22.31,-22.93,0,*40
1504001119.54,19641,20.31,74312.0,25.89,-22.53,-23.43,0,*40
1504001120.77,19642,20.31,74312.8,25.91,-23.59,-24.57,0,*43
1504001122.03,19643,20.31,74314.5,25.91,-22.17,-22.93,0,*47
1504001123.25,19644,20.31,74312.8,25.93,-22.93,-23.99,0,*45
1504001124.48,19645,20.31,74312.8,25.93,-22.27,-23.19,0,*43
1504001125.71,19646,20.31,74310.8,25.93,-21.67,-22.63,0,*4B
1504001126.95,19647,20.31,74310.5,25.95,-21.43,-22.21,0,*4C
1504001128.2,19648,20.31,74308.5,25.97,-21.67,-22.47,0,*47
1504001129.4,19649,20.31,74314.5,25.97,-22.03,-22.83,0,*4F
1504001130.64,19650,20.31,74312.8,25.99,-22.63,-23.49,0,*48
1504001131.88,19651,20.31,74310.0,26.01,-22.31,-23.29,0,*4A
1504001133.13,19652,20.31,74310.3,25.99,-22.77,-23.59,0,*4E
1504001134.36,19653,20.31,74314.5,26.01,-22.47,-23.43,0,*45
1504001135.61,19654,20.31,74312.8,26.03,-22.21,-22.93,0,*4C
1504001136.86,19655,20.31,74308.0,26.03,-22.27,-23.19,0,*48
1504001138.08,19656,20.31,74314.3,26.05,-22.27,-22.87,0,*4B
1504001139.35,19657,20.31,74314.8,26.05,-23.03,-23.99,0,*43
1504001140.57,19658,20.31,74312.3,26.05,-22.87,-23.79,0,*4F
1504001141.82,19659,20.31,74312.8,26.05,-22.93,-23.85,0,*48
1504001143.06,19660,20.31,74310.5,26.05,-22.83,-23.65,0,*4D
1504001144.31,19661,20.31,74312.0,26.09,-23.13,-23.99,0,*4B
1504001145.55,19662,20.31,74312.3,26.09,-23.79,-24.67,0,*42
1504001146.8,19663,20.31,74314.0,26.09,-23.99,-25.13,0,*4F
1504001148.05,19664,20.31,74312.0,26.09,-24.11,-25.23,0,*4C
1504001149.33,19665,20.31,74310.0,26.09,-24.41,-25.45,0,*48
1504001150.56,19666,20.31,74314.3,26.05,-24.61,-25.49,0,*49
1504001151.82,19667,20.31,74308.3,26.05,-24.51,-25.45,0,*47
1504001153.03,19668,20.31,74312.8,26.05,-22.87,-23.79,0,*4C
1504001154.31,19669,20.31,74314.5,26.03,-23.03,-24.21,0,*4C
1504001155.58,19670,20.31,74314.3,26.09,-23.29,-24.25,0,*42
1504001156.84,19671,20.31,74312.0,26.09,-23.75,-24.87,0,*42
1504001158.11,19672,20.31,74312.3,26.09,-23.03,-24.11,0,*4F
1504001159.38,19673,20.31,74314.3,26.09,-23.33,-24.25,0,*4A
1504001160.63,19674,20.31,74314.5,26.09,-23.65,-24.61,0,*4E
1504001161.85,19675,20.31,74312.0,26.11,-23.09,-23.95,0,*40
1504001163.1,19676,20.31,74312.8,26.09,-23.33,-24.31,0,*4A
1504001164.32,19677,20.31,74312.5,26.11,-23.75,-24.67,0,*43
1504001165.57,19678,20.31,74314.3,26.09,-23.65,-24.61,0,*42
1504001166.82,19679,20.31,74314.5,26.09,-23.95,-24.97,0,*45
1504001168.04,19680,20.31,74312.3,26.11,-23.29,-24.57,0,*41
1504001169.27,19681,20.31,74314.3,26.11,-24.21,-25.19,0,*44
1504001170.49,19682,20.31,74312.0,26.11,-23.75,-24.83,0,*43
1504001171.72,19683,20.31,74308.3,26.11,-22.97,-24.21,0,*47
1504001172.92,19684,20.31,74314.0,26.11,-23.89,-24.93,0,*47
1504001174.17,19685,20.31,74314.0,26.13,-23.65,-24.61,0,*4B
1504001175.35,19686,20.31,74314.3,26.15,-23.39,-24.35,0,*46
1504001176.6,19687,20.31,74314.5,26.13,-23.53,-24.51,0,*4F
1504001177.85,19688,20.31,74312.0,26.13,-24.83,-25.91,0,*47
1504001179.12,19689,20.31,74312.3,26.13,-23.85,-24.83,0,*45
1504001180.36,19690,20.31,74314.0,26.13,-23.79,-24.67,0,*44
1504001181.58,19691,20.31,74312.8,26.13,-23.39,-24.31,0,*42
1504001182.85,19692,20.31,74312.8,26.13,-23.85,-24.87,0,*4B
1504001184.07,19693,20.31,74310.3,26.15,-23.49,-24.47,0,*40
1504001185.29,19694,20.31,74314.5,26.15,-23.79,-24.67,0,*46
1504001186.57,19695,20.31,74314.8,26.13,-23.19,-24.21,0,*45
1504001187.79,19696,20.31,74314.8,26.15,-23.19,-24.05,0,*46
1504001189.01,19697,20.31,74314.0,26.15,-23.49,-24.47,0,*44
1504001190.21,19698,20.31,74316.3,26.15,-23.79,-24.77,0,*4B
1504001191.43,19699,20.31,74312.3,26.17,-23.79,-24.77,0,*48
1504001192.68,19700,20.31,74314.0,26.17,-24.61,-25.55,0,*46
1504001193.89,19701,20.31,74312.8,26.17,-24.93,-25.87,0,*45
1504001195.14,19702,20.31,74316.3,26.17,-24.61,-25.71,0,*42
1504001196.37,19703,20.31,74312.3,26.17,-26.23,-27.45,0,*42
1504001197.62,19704,20.31,74314.5,26.13,-26.49,-27.61,0,*4B
1504001198.81,19705,20.31,74314.5,26.11,-25.35,-26.23,0,*47
1504001200.04,19706,20.31,74312.5,26.11,-25.97,-27.03,0,*4F
1504001201.29,19707,20.31,74312.0,26.09,-24.15,-24.97,0,*42
1504001202.52,19708,20.31,74314.3,26.11,-25.97,-27.03,0,*41
1504001203.77,19709,20.31,74316.3,26.09,-26.13,-27.07,0,*42
1504001205.01,19710,20.31,74312.0,26.05,-26.13,-27.13,0,*43
1504001206.23,19711,20.31,74314.3,26.05,-25.49,-26.61,0,*4A
1504001207.51,19712,20.31,74316.0,26.05,-26.77,-27.99,0,*41
1504001208.74,19713,20.31,74312.8,26.01,-25.03,-26.03,0,*46
1504001209.96,19714,20.31,74314.5,26.01,-24.67,-25.49,0,*4F
1504001211.21,19715,20.31,74310.5,26.03,-24.67,-25.91,0,*49
1504001212.44,19716,20.31,74310.8,26.03,-24.05,-24.97,0,*49
1504001213.7,19717,20.31,74314.8,26.05,-23.85,-24.67,0,*4E
1504001214.93,19718,20.31,74314.8,26.05,-24.47,-25.35,0,*4E
1504001216.18,19719,20.31,74310.5,26.05,-23.99,-24.97,0,*42
1504001217.42,19720,20.31,74312.3,26.05,-24.15,-25.13,0,*46
1504001218.65,19721,20.31,74314.5,26.03,-23.79,-24.77,0,*4F
1504001219.9,19722,20.31,74318.0,26.05,-23.49,-24.61,0,*4E
1504001221.15,19723,20.31,74314.5,26.09,-25.23,-26.29,0,*47
1504001222.4,19724,20.31,74308.8,26.03,-26.49,-27.61,0,*48
1504001223.67,19725,20.31,74314.0,26.05,-23.99,-25.03,0,*41
1504001224.91,19726,20.31,74312.0,26.03,-24.93,-25.81,0,*43
1504001226.16,19727,20.31,74312.0,26.05,-24.05,-25.03,0,*41
1504001227.44,19728,20.31,74312.3,26.03,-24.21,-25.29,0,*46
1504001228.68,19729,20.31,74314.5,26.03,-23.69,-24.77,0,*46
1504001229.95,19730,20.31,74314.8,26.09,-23.49,-24.41,0,*43
1504001231.2,19731,20.31,74312.0,26.09,-25.55,-26.61,0,*49
1504001232.43,19732,20.31,74312.0,26.09,-25.39,-26.39,0,*4D
1504001233.68,19733,20.31,74312.5,26.05,-25.19,-26.29,0,*43
1504001234.9,19734,20.31,74314.5,26.05,-26.07,-27.13,0,*40
1504001236.17,19735,20.31,74314.8,26.03,-25.81,-26.97,0,*47
1504001237.4,19736,20.31,74312.8,26.03,-24.77,-25.65,0,*42
1504001238.65,19737,20.31,74314.5,26.01,-25.71,-26.97,0,*48
1504001239.9,19738,20.31,74314.0,26.01,-26.17,-27.23,0,*4A
1504001241.14,19739,20.31,74312.5,26.01,-23.85,-24.83,0,*4C
1504001242.37,19740,20.31,74316.8,26.01,-23.43,-24.41,0,*46
1504001243.6,19741,20.31,74316.0,26.01,-24.41,-25.39,0,*4C
1504001244.85,19742,20.31,74316.5,26.05,-24.05,-25.03,0,*42
1504001246.12,19743,20.31,74314.5,26.05,-23.85,-24.83,0,*45
1504001247.39,19744,20.31,74316.5,26.05,-23.99,-25.03,0,*46
1504001248.65,19745,20.31,74312.5,26.05,-24.31,-25.29,0,*4A
1504001249.89,19746,20.31,74312.0,26.05,-23.23,-24.31,0,*45
1504001251.16,19747,20.31,74316.5,26.09,-23.49,-24.41,0,*43
1504001252.41,19748,20.31,74316.3,26.09,-23.29,-24.31,0,*4D
1504001253.63,19749,20.31,74312.3,26.11,-23.75,-24.67,0,*4F
1504001254.87,19750,20.31,74312.5,26.11,-23.23,-24.11,0,*45
1504001256.12,19751,20.31,74316.3,26.13,-23.09,-24.15,0,*4A
1504001257.36,19752,20.31,74314.3,26.13,-23.85,-24.77,0,*49
1504001258.59,19753,20.31,74312.8,26.13,-24.97,-26.03,0,*4D
1504001259.86,19754,20.31,74314.8,26.13,-25.81,-26.81,0,*46
1504001261.13,19755,20.31,74314.5,26.13,-26.33,-27.45,0,*44
1504001262.35,19756,20.31,74314.5,26.05,-26.45,-27.77,0,*40
1504001263.6,19757,20.31,74314.5,26.05,-28.53,-29.89,0,*47
1504001264.85,19758,20.31,74314.5,26.03,-26.29,-27.51,0,*46
1504001266.04,19759,20.31,74312.3,26.01,-25.09,-26.23,0,*40
1504001267.26,19760,20.31,74314.0,26.01,-23.89,-25.03,0,*45
1504001268.51,19761,20.31,74312.8,26.05,-26.49,-27.83,0,*43
1504001269.78,19762,20.31,74312.0,26.03,-28.47,-30.01,0,*4A
1504001271.04,19763,20.31,74316.5,25.99,-27.19,-28.47,0,*44
1504001272.27,19764,20.31,74312.3,25.97,-24.05,-25.03,0,*4E
1504001273.49,19765,20.31,74312.0,25.97,-23.49,-24.47,0,*41
1504001274.76,19766,20.31,74312.8,25.99,-23.95,-25.03,0,*4C
1504001275.99,19767,20.31,74318.5,25.99,-23.59,-24.77,0,*4F
1504001277.22,19768,20.31,74312.8,26.01,-26.03,-27.23,0,*4A
1504001278.44,19769,20.31,74312.5,26.01,-25.19,-26.33,0,*43
1504001279.71,19770,20.31,74312.8,25.99,-26.29,-27.61,0,*4F
1504001280.93,19771,20.31,74314.5,25.99,-25.91,-26.87,0,*47
1504001282.16,19772,20.31,74312.5,25.97,-24.41,-25.39,0,*40
1504001283.42,19773,20.31,74314.3,25.99,-25.45,-26.55,0,*43
1504001284.65,19774,20.31,74316.0,25.97,-24.61,-25.71,0,*48
1504001285.85,19775,20.31,74312.5,25.97,-23.79,-24.93,0,*4A
1504001287.12,19776,20.31,74314.3,25.99,-23.95,-24.87,0,*40
1504001288.34,19777,20.31,74312.5,26.01,-25.23,-26.33,0,*45
1504001289.57,19778,20.31,74314.3,25.99,-25.13,-26.07,0,*4C
1504001290.8,19779,20.31,74314.5,25.99,-23.75,-24.77,0,*4E
1504001292.04,19780,20.31,74314.8,26.01,-23.85,-24.71,0,*43
1504001293.26,19781,20.31,74314.3,26.01,-23.39,-24.41,0,*46
1504001294.48,19782,20.31,74314.0,26.01,-22.93,-23.85,0,*4B
1504001295.71,19783,20.31,74312.5,26.03,-21.77,-22.83,0,*46